Location: Unspecified
(0.0000°N, 0.0000°E)
Time: 09:40:13
(UTC+00:00)

SRMSAT - Pass Details

Date: 30 March 2019
Orbit: 849 x 865 km, 20.0° (Epoch: 26 April)

Event Time Altitude Azimuth Distance (km) Brightness Sun altitude
Rises 19:53:05 0° 235° (SW) 3,416 ? -27.1°
Reaches altitude 10° 19:55:52 10° 226° (SW) 2,476 ? -27.8°
Enters shadow 20:00:02 32° 186° (S) 1,408 ? -28.8°
